Time_in_sec,gx,gy,gz
1326903190.07252622,-0.01653436,0.02476934,-0.99955645
1326903190.12148404,-0.01669590,0.02507724,-0.99954609
1326903190.17461038,-0.01678173,0.02510897,-0.99954385
1326903190.22155237,-0.01689479,0.02552708,-0.99953136
1326903190.27368999,-0.01723468,0.02574236,-0.99952003
1326903190.32164836,-0.01705660,0.02537684,-0.99953243
1326903190.37236261,-0.01701194,0.02551640,-0.99952964
1326903190.42155194,-0.01712901,0.02565543,-0.99952408
1326903190.47248721,-0.01717933,0.02574549,-0.99952091
1326903190.52159715,-0.01713559,0.02568360,-0.99952325
1326903190.57268405,-0.01711245,0.02547634,-0.99952895
1326903190.62566638,-0.01743889,0.02559511,-0.99952027
1326903190.67361498,-0.01778473,0.02567011,-0.99951226
1326903190.72500062,-0.01786201,0.02582427,-0.99950691
1326903190.77297139,-0.01796933,0.02601180,-0.99950012
1326903190.82555223,-0.01758505,0.02552044,-0.99951962
1326903190.87262654,-0.01767389,0.02539667,-0.99952121
1326903190.92092347,-0.01771821,0.02543788,-0.99951937
1326903190.97251487,-0.01769539,0.02572883,-0.99951233
1326903191.02164078,-0.01754691,0.02572449,-0.99951506
1326903191.07351279,-0.01744773,0.02531418,-0.99952727
1326903191.12164426,-0.01743112,0.02555918,-0.99952133
1326903191.17353511,-0.01765991,0.02547203,-0.99951954
1326903191.22152257,-0.01779977,0.02561144,-0.99951349
1326903191.27279711,-0.01771759,0.02569049,-0.99951292
1326903191.32148266,-0.01767322,0.02546689,-0.99951943
1326903191.37252879,-0.01782588,0.02559489,-0.99951345
1326903191.42448378,-0.01774479,0.02568029,-0.99951270
1326903191.47354841,-0.01773918,0.02592960,-0.99950637
1326903191.52155638,-0.01792416,0.02607835,-0.99949920
1326903191.57336569,-0.01769872,0.02540000,-0.99952068
1326903191.62150502,-0.01776416,0.02545469,-0.99951813
1326903191.67252374,-0.01768897,0.02554107,-0.99951726
1326903191.72148347,-0.01764917,0.02575733,-0.99951241
1326903191.77264571,-0.01778049,0.02588490,-0.99950679
1326903191.82067251,-0.01713626,0.02543590,-0.99952957
1326903191.87351799,-0.01713654,0.02555015,-0.99952665
1326903191.92057300,-0.01751556,0.02553960,-0.99952035
1326903191.97353768,-0.01781862,0.02567992,-0.99951140
1326903192.02151942,-0.01802801,0.02576677,-0.99950541
1326903192.07463574,-0.01757175,0.02548569,-0.99952074
1326903192.12152100,-0.01762097,0.02573648,-0.99951345
1326903192.17393017,-0.01768092,0.02612338,-0.99950235
1326903192.22445750,-0.01769643,0.02635796,-0.99949592
1326903192.27350020,-0.01794983,0.02658890,-0.99948528
1326903192.32454443,-0.01760680,0.02635485,-0.99949759
1326903192.37353826,-0.01798248,0.02663087,-0.99948358
1326903192.42143178,-0.01804446,0.02658123,-0.99948378
1326903192.47355676,-0.01810612,0.02664810,-0.99948089
1326903192.52148557,-0.01814117,0.02693459,-0.99947257
1326903192.57355261,-0.01786964,0.02666111,-0.99948480
1326903192.62584186,-0.01794047,0.02679412,-0.99947997
1326903192.67351794,-0.01808244,0.02699490,-0.99947201
1326903192.72550845,-0.01809479,0.02716432,-0.99946720
1326903192.77349067,-0.01811456,0.02730487,-0.99946301
1326903192.82153940,-0.01788782,0.02673471,-0.99948251
1326903192.87355685,-0.01812093,0.02685693,-0.99947503
1326903192.92148423,-0.01814997,0.02711181,-0.99946762
1326903192.97252750,-0.01830952,0.02734486,-0.99945836
1326903193.02463293,-0.01838492,0.02752952,-0.99945191
1326903193.07365727,-0.01807767,0.02712625,-0.99946854
1326903193.12125134,-0.01805185,0.02727603,-0.99946493
1326903193.17139673,-0.01810696,0.02720193,-0.99946595
1326903193.22111917,-0.01843241,0.02720768,-0.99945985
1326903193.27253842,-0.01871835,0.02731670,-0.99945156
1326903193.32163572,-0.01814186,0.02707791,-0.99946869
1326903193.37312770,-0.01835293,0.02714208,-0.99946309
1326903193.42465281,-0.01826974,0.02722761,-0.99946229
1326903193.47353816,-0.01817767,0.02733005,-0.99946118
1326903193.52164865,-0.01829207,0.02743441,-0.99945623
1326903193.57353687,-0.01796641,0.02711931,-0.99947074
1326903193.62155962,-0.01817745,0.02712568,-0.99946675
1326903193.67263865,-0.01825248,0.02741615,-0.99945745
1326903193.72148943,-0.01849095,0.02749215,-0.99945098
1326903193.77258229,-0.01864508,0.02752481,-0.99944722
1326903193.82108140,-0.01825891,0.02721635,-0.99946280
1326903193.87383080,-0.01825972,0.02712700,-0.99946521
1326903193.92561197,-0.01826850,0.02713470,-0.99946484
1326903193.97351480,-0.01826837,0.02757915,-0.99945268
1326903194.02154112,-0.01834179,0.02765486,-0.99944924
1326903194.07250166,-0.01776403,0.02686154,-0.99948131
1326903194.12148452,-0.01780503,0.02708991,-0.99947442
1326903194.17284608,-0.01809942,0.02754316,-0.99945675
1326903194.22164845,-0.01844902,0.02765936,-0.99944714
1326903194.27350211,-0.01840767,0.02777342,-0.99944474
1326903194.32464743,-0.01800843,0.02743478,-0.99946137
1326903194.37352514,-0.01803572,0.02751853,-0.99945858
1326903194.42072177,-0.01830085,0.02782042,-0.99944540
1326903194.47351766,-0.01844236,0.02795226,-0.99943912
1326903194.52151084,-0.01826211,0.02799990,-0.99944109
1326903194.57272267,-0.01799013,0.02771212,-0.99945405
1326903194.62072706,-0.01787933,0.02805794,-0.99944639
1326903194.67354727,-0.01775169,0.02837690,-0.99943966
1326903194.72156429,-0.01782996,0.02856293,-0.99943296
1326903194.77449274,-0.01807326,0.02873301,-0.99942372
1326903194.82155514,-0.01773877,0.02813602,-0.99944670
1326903194.87263203,-0.01795738,0.02831340,-0.99943778
1326903194.92147851,-0.01810212,0.02855272,-0.99942836
1326903194.97263336,-0.01815626,0.02861334,-0.99942565
1326903195.02063608,-0.01853497,0.02870115,-0.99941618
1326903195.07158542,-0.01791538,0.02825058,-0.99944032
1326903195.12430859,-0.01790084,0.02829931,-0.99943920
1326903195.17354918,-0.01816574,0.02846583,-0.99942969
1326903195.22092056,-0.01825560,0.02856777,-0.99942514
1326903195.27251482,-0.01835944,0.02868032,-0.99942002
1326903195.32152748,-0.01777613,0.02806877,-0.99944792
1326903195.37255692,-0.01789795,0.02819477,-0.99944220
1326903195.42455339,-0.01783965,0.02836422,-0.99943845
1326903195.47352386,-0.01811724,0.02839553,-0.99943257
1326903195.52146912,-0.01835992,0.02863476,-0.99942131
1326903195.57354546,-0.01792179,0.02803422,-0.99944629
1326903195.62141848,-0.01814886,0.02802113,-0.99944256
1326903195.67263031,-0.01829622,0.02839188,-0.99942941
1326903195.72161341,-0.01838214,0.02851201,-0.99942442
1326903195.77351689,-0.01849538,0.02880356,-0.99941397
1326903195.82462430,-0.01761044,0.02831339,-0.99944396
1326903195.87352371,-0.01764991,0.02849640,-0.99943806
1326903195.92454720,-0.01781536,0.02848304,-0.99943551
1326903195.97354317,-0.01761947,0.02865230,-0.99943414
1326903196.02115631,-0.01782578,0.02882002,-0.99942566
1326903196.07261324,-0.01733769,0.02832092,-0.99944851
1326903196.12148595,-0.01726044,0.02848265,-0.99944525
1326903196.17262101,-0.01740468,0.02854369,-0.99944101
1326903196.22564125,-0.01763240,0.02854362,-0.99943702
1326903196.27353406,-0.01763009,0.02866397,-0.99943362
1326903196.32155156,-0.01726725,0.02847531,-0.99944535
1326903196.37353253,-0.01738151,0.02877300,-0.99943484
1326903196.42151356,-0.01751150,0.02896928,-0.99942690
1326903196.47349381,-0.01780198,0.02893657,-0.99942272
1326903196.52148104,-0.01763443,0.02916788,-0.99941896
1326903196.57253599,-0.01702331,0.02845881,-0.99945000
1326903196.62450981,-0.01727945,0.02865540,-0.99943999
1326903196.67355824,-0.01744777,0.02871244,-0.99943543
1326903196.72450256,-0.01733683,0.02876986,-0.99943571
1326903196.77352571,-0.01770188,0.02881910,-0.99942789
1326903196.82151723,-0.01681798,0.02824359,-0.99945958
1326903196.87255311,-0.01685481,0.02844728,-0.99945318
1326903196.92150116,-0.01705955,0.02855339,-0.99944668
1326903196.97254157,-0.01737428,0.02869701,-0.99943715
1326903197.02553535,-0.01747730,0.02864253,-0.99943692
1326903197.07135367,-0.01644037,0.02794188,-0.99947434
1326903197.12485576,-0.01669520,0.02817325,-0.99946363
1326903197.17364669,-0.01676245,0.02831922,-0.99945837
1326903197.22153735,-0.01693605,0.02861910,-0.99944691
1326903197.27252793,-0.01702724,0.02865705,-0.99944427
1326903197.32156205,-0.01663626,0.02840031,-0.99945818
1326903197.37251449,-0.01694712,0.02875621,-0.99944278
1326903197.42284298,-0.01690728,0.02877531,-0.99944291
1326903197.47353268,-0.01704971,0.02897219,-0.99943480
1326903197.52482796,-0.01714110,0.02923136,-0.99942569
1326903197.57353902,-0.01629707,0.02836656,-0.99946473
1326903197.62058854,-0.01654708,0.02869223,-0.99945132
1326903197.67261529,-0.01657330,0.02888370,-0.99944537
1326903197.72149920,-0.01656186,0.02911545,-0.99943884
1326903197.77350259,-0.01657900,0.02925306,-0.99943454
1326903197.82064056,-0.01592553,0.02855253,-0.99946542
1326903197.87352538,-0.01604991,0.02867501,-0.99945993
1326903197.92156649,-0.01627400,0.02892547,-0.99944909
1326903197.97352433,-0.01621815,0.02921280,-0.99944164
1326903198.02152133,-0.01607576,0.02941990,-0.99943786
1326903198.07435632,-0.01524285,0.02903168,-0.99946226
1326903198.12151122,-0.01545471,0.02928013,-0.99945176
1326903198.17257643,-0.01544968,0.02941305,-0.99944794
1326903198.22455263,-0.01558466,0.02947155,-0.99944412
1326903198.27352333,-0.01564507,0.02975151,-0.99943488
1326903198.32454395,-0.01518774,0.02931633,-0.99945479
1326903198.37253094,-0.01526393,0.02957640,-0.99944597
1326903198.42130280,-0.01534730,0.02955149,-0.99944543
1326903198.47334290,-0.01539568,0.03008556,-0.99942875
1326903198.52148414,-0.01450438,0.02935204,-0.99946390
1326903198.57332277,-0.01443331,0.02953901,-0.99945942
1326903198.62454081,-0.01462264,0.02981510,-0.99944847
1326903198.67351317,-0.01467090,0.02995865,-0.99944347
1326903198.72454834,-0.01493137,0.03026395,-0.99943041
1326903198.77353096,-0.01485059,0.03015398,-0.99943494
1326903198.82151675,-0.01450441,0.02970265,-0.99945354
1326903198.87253571,-0.01476697,0.02993150,-0.99944287
1326903198.92147517,-0.01481965,0.02984293,-0.99944473
1326903198.97250152,-0.01485732,0.03016679,-0.99943445
1326903199.02453303,-0.01433078,0.02948447,-0.99946250
1326903199.07259154,-0.01436968,0.02953355,-0.99946050
1326903199.12462616,-0.01446674,0.02959908,-0.99945716
1326903199.17352748,-0.01460173,0.02958395,-0.99945564
1326903199.22154498,-0.01465022,0.02968061,-0.99945207
1326903199.27257824,-0.01471769,0.02960219,-0.99945340
1326903199.32151079,-0.01412637,0.02897794,-0.99948023
1326903199.37271357,-0.01417897,0.02901140,-0.99947851
1326903199.42452168,-0.01410587,0.02913592,-0.99947592
1326903199.47368050,-0.01427803,0.02926121,-0.99946982
1326903199.52555418,-0.01435162,0.02923297,-0.99946959
1326903199.57358122,-0.01385152,0.02850299,-0.99949773
1326903199.62155485,-0.01399442,0.02883172,-0.99948631
1326903199.67250013,-0.01413119,0.02895995,-0.99948068
1326903199.72150493,-0.01419284,0.02914936,-0.99947430
1326903199.77256322,-0.01363039,0.02837873,-0.99950431
1326903199.82464266,-0.01355365,0.02873062,-0.99949530
1326903199.87351108,-0.01352500,0.02891882,-0.99949026
1326903199.92102218,-0.01374442,0.02890945,-0.99948754
1326903199.97356391,-0.01369961,0.02918139,-0.99948025
1326903200.02498627,-0.01358324,0.02939329,-0.99947563
1326903200.07264876,-0.01323859,0.02897975,-0.99949233
1326903200.12178111,-0.01344803,0.02914072,-0.99948485
1326903200.17265701,-0.01348239,0.02929307,-0.99947994
1326903200.22458577,-0.01357375,0.02950155,-0.99947257
1326903200.27350473,-0.01378514,0.02948668,-0.99947011
1326903200.32153726,-0.01328113,0.02894000,-0.99949292
1326903200.37207747,-0.01335356,0.02898127,-0.99949075
1326903200.42153335,-0.01333379,0.02893245,-0.99949243
1326903200.47355366,-0.01332251,0.02936800,-0.99947988
1326903200.52153206,-0.01340219,0.02934442,-0.99947951
1326903200.57254601,-0.01297205,0.02883247,-0.99950008
1326903200.62164235,-0.01307066,0.02918370,-0.99948860
1326903200.67365599,-0.01307116,0.02953755,-0.99947820
1326903200.72063899,-0.01304523,0.02953872,-0.99947851
1326903200.77355123,-0.01298455,0.02952645,-0.99947966
1326903200.82155800,-0.01266252,0.02921334,-0.99949299
1326903200.87250924,-0.01274430,0.02916217,-0.99949345
1326903200.92147398,-0.01283531,0.02943816,-0.99948419
1326903200.97259068,-0.01292421,0.02952886,-0.99948037
1326903201.02059484,-0.01307864,0.02965625,-0.99947459
1326903201.07354093,-0.01238385,0.02889326,-0.99950579
1326903201.12460327,-0.01256048,0.02893623,-0.99950234
1326903201.17186189,-0.01272501,0.02898936,-0.99949872
1326903201.22546864,-0.01295394,0.02920786,-0.99948942
1326903201.27349830,-0.01297513,0.02931982,-0.99948586
1326903201.32148671,-0.01253555,0.02888898,-0.99950402
1326903201.37252545,-0.01274346,0.02903991,-0.99949702
1326903201.42453241,-0.01290150,0.02909284,-0.99949345
1326903201.47467852,-0.01305806,0.02920976,-0.99948801
1326903201.52434611,-0.01306010,0.02907354,-0.99949195
1326903201.57352233,-0.01207467,0.02856288,-0.99951907
1326903201.62132072,-0.01219526,0.02857502,-0.99951726
1326903201.67323279,-0.01234712,0.02875557,-0.99951021
1326903201.72151232,-0.01227613,0.02894233,-0.99950570
1326903201.77525043,-0.01156083,0.02829378,-0.99953280
1326903201.82550573,-0.01157624,0.02844423,-0.99952835
1326903201.87368584,-0.01180006,0.02845541,-0.99952541
1326903201.92762899,-0.01162155,0.02859776,-0.99952344
1326903201.97352815,-0.01174798,0.02886727,-0.99951421
1326903202.02117515,-0.01201032,0.02884286,-0.99951180
1326903202.07256007,-0.01094386,0.02802878,-0.99954721
1326903202.12160540,-0.01104804,0.02821043,-0.99954095
1326903202.17307043,-0.01096885,0.02835496,-0.99953773
1326903202.22196221,-0.01093940,0.02854062,-0.99953277
1326903202.27480340,-0.01100987,0.02824519,-0.99954039
1326903202.32452011,-0.01061147,0.02779741,-0.99955725
1326903202.37352753,-0.01088022,0.02792512,-0.99955080
1326903202.42151165,-0.01087335,0.02820418,-0.99954304
1326903202.47249198,-0.01102267,0.02832278,-0.99953805
1326903202.52148247,-0.01074017,0.02792048,-0.99955245
1326903202.57251143,-0.01099301,0.02791540,-0.99954984
1326903202.62564683,-0.01108930,0.02796933,-0.99954727
1326903202.67351961,-0.01147774,0.02809972,-0.99953923
1326903202.72565746,-0.01138500,0.02818452,-0.99953790
1326903202.77353573,-0.01148939,0.02833768,-0.99953238
1326903202.82159138,-0.01136918,0.02806233,-0.99954152
1326903202.87364960,-0.01156066,0.02809067,-0.99953853
1326903202.92160964,-0.01174253,0.02848394,-0.99952528
1326903202.97365642,-0.01196251,0.02854307,-0.99952098
1326903203.02460766,-0.01223086,0.02866078,-0.99951437
1326903203.07352138,-0.01203510,0.02806205,-0.99953373
1326903203.12151313,-0.01207481,0.02810287,-0.99953210
1326903203.17349720,-0.01217932,0.02830972,-0.99952500
1326903203.22453880,-0.01242392,0.02856646,-0.99951468
1326903203.27266049,-0.01245572,0.02868486,-0.99951090
1326903203.32148385,-0.01131749,0.02798841,-0.99954418
1326903203.37266135,-0.01146284,0.02810354,-0.99953929
1326903203.42063785,-0.01154318,0.02833957,-0.99953170
1326903203.47350574,-0.01169358,0.02841394,-0.99952784
1326903203.52068448,-0.01171222,0.02839888,-0.99952805
1326903203.57352877,-0.01163171,0.02806773,-0.99953835
1326903203.62154698,-0.01161318,0.02818272,-0.99953533
1326903203.67268920,-0.01163059,0.02833037,-0.99953095
1326903203.72061849,-0.01207028,0.02843538,-0.99952275
1326903203.77261472,-0.01206069,0.02860951,-0.99951790
1326903203.82164216,-0.01120722,0.02789647,-0.99954799
1326903203.87350655,-0.01143649,0.02792368,-0.99954463
1326903203.92153811,-0.01157878,0.02793365,-0.99954272
1326903203.97752452,-0.01170177,0.02804956,-0.99953804
1326903204.03248715,-0.01203245,0.02824880,-0.99952850
1326903204.07251978,-0.01101487,0.02770083,-0.99955557
1326903204.12151074,-0.01128246,0.02776384,-0.99955084
1326903204.17348719,-0.01149822,0.02799121,-0.99954204
1326903204.22454143,-0.01167153,0.02803482,-0.99953881
1326903204.27351189,-0.01155991,0.02814500,-0.99953701
1326903204.32453990,-0.01093651,0.02738520,-0.99956513
1326903204.37255502,-0.01082195,0.02745495,-0.99956446
1326903204.42452431,-0.01090554,0.02767417,-0.99955751
1326903204.47337747,-0.01090298,0.02774878,-0.99955547
1326903204.52704453,-0.01057539,0.02718940,-0.99957436
1326903204.57364202,-0.01080435,0.02717557,-0.99957229
1326903204.62553906,-0.01093760,0.02715748,-0.99957133
1326903204.67166018,-0.01112123,0.02738381,-0.99956313
1326903204.72467613,-0.01132606,0.02767848,-0.99955271
1326903204.77353644,-0.01159748,0.02765201,-0.99955033
1326903204.82451677,-0.01158230,0.02692114,-0.99957046
1326903204.87375331,-0.01170116,0.02708079,-0.99956476
1326903204.92149830,-0.01168509,0.02730380,-0.99955888
1326903204.97356653,-0.01191714,0.02775892,-0.99954361
1326903205.02454829,-0.01187370,0.02781603,-0.99954254
1326903205.07358837,-0.01106283,0.02712462,-0.99957084
1326903205.12149525,-0.01107934,0.02743326,-0.99956224
1326903205.17349839,-0.01115669,0.02772391,-0.99955336
1326903205.22108150,-0.01123062,0.02775336,-0.99955171
1326903205.27353883,-0.01115033,0.02794172,-0.99954736
1326903205.32179570,-0.01143267,0.02750019,-0.99955642
1326903205.37266922,-0.01160997,0.02772476,-0.99954817
1326903205.42457080,-0.01179859,0.02792950,-0.99954026
1326903205.47355056,-0.01191715,0.02824118,-0.99953010
1326903205.52466083,-0.01140118,0.02757052,-0.99955484
1326903205.57353735,-0.01159377,0.02766461,-0.99955003
1326903205.62154961,-0.01182655,0.02786800,-0.99954165
1326903205.67307091,-0.01211680,0.02780633,-0.99953989
1326903205.72148228,-0.01230874,0.02796110,-0.99953323
1326903205.77298832,-0.01220799,0.02811808,-0.99953006
1326903205.82560229,-0.01171903,0.02780581,-0.99954465
1326903205.87350440,-0.01187045,0.02814127,-0.99953347
1326903205.92509747,-0.01224601,0.02824642,-0.99952598
1326903205.97352242,-0.01228598,0.02823619,-0.99952577
1326903206.02078247,-0.01258400,0.02820324,-0.99952300
1326903206.07280970,-0.01272055,0.02776587,-0.99953351
1326903206.12148190,-0.01271376,0.02818391,-0.99952190
1326903206.17360854,-0.01268237,0.02840677,-0.99951599
1326903206.22481251,-0.01288180,0.02853100,-0.99950990
1326903206.27351904,-0.01304785,0.02849785,-0.99950869
1326903206.32564950,-0.01276047,0.02804784,-0.99952513
1326903206.37751150,-0.01283203,0.02826923,-0.99951798
1326903206.42153454,-0.01295178,0.02831540,-0.99951513
1326903206.47268510,-0.01311267,0.02839721,-0.99951071
1326903206.52150869,-0.01319526,0.02851977,-0.99950613
1326903206.57265902,-0.01233288,0.02782185,-0.99953682
1326903206.62063861,-0.01242913,0.02814022,-0.99952671
1326903206.67353010,-0.01238671,0.02849550,-0.99951717
1326903206.72051358,-0.01248479,0.02865741,-0.99951132
1326903206.77353883,-0.01243790,0.02870049,-0.99951067
1326903206.82052231,-0.01231585,0.02793047,-0.99953400
1326903206.87252712,-0.01245501,0.02808916,-0.99952782
1326903206.92148805,-0.01259146,0.02820455,-0.99952287
1326903206.97253299,-0.01291727,0.02826560,-0.99951698
1326903207.02451682,-0.01282518,0.02856178,-0.99950975
1326903207.07164526,-0.01246070,0.02808180,-0.99952796
1326903207.12451959,-0.01262584,0.02830864,-0.99951949
1326903207.17353559,-0.01290010,0.02867860,-0.99950544
1326903207.22452068,-0.01312639,0.02895073,-0.99949465
1326903207.27249789,-0.01328464,0.02919415,-0.99948548
1326903207.32150483,-0.01286244,0.02869997,-0.99950531
1326903207.37343287,-0.01305721,0.02900163,-0.99949408
1326903207.42554021,-0.01329872,0.02900405,-0.99949083
1326903207.47362280,-0.01337930,0.02927023,-0.99948199
1326903207.52461696,-0.01367807,0.02957398,-0.99946900
1326903207.57352400,-0.01334089,0.02897567,-0.99949109
1326903207.62154365,-0.01328893,0.02930498,-0.99948218
1326903207.67257690,-0.01326219,0.02942728,-0.99947894
1326903207.72150874,-0.01331132,0.02952172,-0.99947550
1326903207.77253318,-0.01334321,0.02994981,-0.99946234
1326903207.82451367,-0.01312653,0.02944693,-0.99948015
1326903207.87321949,-0.01301701,0.02951864,-0.99947947
1326903207.92148709,-0.01324242,0.02965497,-0.99947247
